Other Public Products
Issued by NWS Grand Forks, ND

Home | Current Version | Previous Version | Graphics & Text | Print | Product List | Glossary On
Versions: 1 2 3 4 5 6 7 8 9 10 11 12 13 14 15 16 17 18 19 20 21 22 23 24 25 26 27 28 29 30 31 32 33 34 35 36 37 38 39 40 41 42 43 44 45 46 47 48 49 50
396
FPUS83 KFGF 291131
OPUFGF
PRAIRIE TO PINES WEATHER ROUNDUP
NATIONAL WEATHER SERVICE EASTERN NORTH DAKOTA/GRAND FORKS ND
600 AM CDT MON MAY 29 2017

 **SATELLITE DATA USED TO AUGMENT SKY COVER AT AUTOMATED STATIONS**
 *****  WEATHER ACROSS EASTERN NORTH DAKOTA  *****

CITY           SKY/WX    TMP DP  RH WIND       PRES   REMARKS
GRAND FORKS    LGT RAIN  51  49  92 NW14      29.83R
GRAND FORKS AF CLOUDY    49  49 100 N12       29.84R
GRAND CITY NWS NOT AVBL
BUXTON           N/A     50  49  99 NW14        N/A
DEVILS LAKE    CLOUDY    50  46  86 NW15      29.89R
FARGO          LGT RAIN  51  49  92 NW13      29.83R
WAHPETON ARPT  CLOUDY    52  45  76 NW13G20   29.84R
$$

 *****  WEATHER ACROSS CENTRAL AND WESTERN NORTH DAKOTA  *****

CITY           SKY/WX    TMP DP  RH WIND       PRES   REMARKS
JAMESTOWN      CLOUDY    50  47  89 NW16      29.89R
BISMARCK       CLOUDY    52  43  71 NW13G21   30.01S
MINOT          CLOUDY    52  44  74 NW16      30.00R
MINOT AFB      CLOUDY    51  45  78 NW18      29.99R
GARRISON         N/A     45  42  89 NW13      30.01R
WILLISTON      FAIR      45  38  76 NW12      30.11R
DICKINSON      FAIR      38  35  89 W8        30.08R
HETTINGER      FAIR      35  32  88 CALM      30.12R
$$

 *****  OTHER OBSERVATIONS NORTHEAST NORTH DAKOTA  *****

CITY           SKY/WX    TMP DP  RH WIND       PRES   REMARKS
WALHALLA       NOT AVBL
LANGDON        DRIZZLE   48  48 100 NW15      29.87R
CAVALIER       LGT RAIN  48  48 100 NW15      29.84R VSB 1
GRAFTON          N/A     48  48 100 NW16G23   29.86R
CANDO          NOT AVBL
FORT TOTTEN      N/A     51  45  80 NW8       29.95S
ROLLA          CLOUDY    46  46 100 NW21      29.92S
RUGBY          NOT AVBL
 ***** THE ABOVE OBSERVATIONS ARE NON NWS ARE NOT QUALITY
        CONTROLLED AND MAY MIS-REPORT RAIN FOR SNOW...
$$

 *****  OTHER OBSERVATIONS SOUTHEAST NORTH DAKOTA *****

CITY           SKY/WX    TMP DP  RH WIND       PRES   REMARKS
COOPERSTOWN    CLOUDY    50  46  87 NW18      29.88R
VALLEY CITY    CLOUDY    52  50  93 NW12G18   29.89R
OAKES          NOT AVBL
GWINNER        PTSUNNY   52  48  87 MISG      29.87R
SHEYENNE NWR     N/A     54  47  78 N9        29.95S
BUFFALO          N/A     50  48  93 CALM        N/A
WYNDMERE         N/A     52  48  87 N7          N/A
 ***** THE ABOVE OBSERVATIONS ARE NON NWS ARE NOT QUALITY
       CONTROLLED AND MAY MIS-REPORT RAIN FOR SNOW...
$$

  *****  WEATHER ACROSS NORTHERN MINNESOTA  *****

CITY           SKY/WX    TMP DP  RH WIND       PRES   REMARKS
FLAG ISLAND    CLOUDY    48  46  93 NW20G26   29.71R
WARROAD        CLOUDY    48  45  87 NW15      29.74S
ROSEAU         CLOUDY    46  43  87 NW13      29.75S
HALLOCK        CLOUDY    48  45  87 NW16      29.81R
THF RVR FALLS  CLOUDY    46  45  93 NW12      29.80R
HALSTAD          N/A     50  48  95 N13         N/A
FOSSTON        CLOUDY    46  45  93 NW14G24   29.78S
BAUDETTE       CLOUDY    48  47  96 NW12      29.71R
WASKISH        LGT RAIN  48  46  93 NW12G18   29.72S
CROOKSTON      CLOUDY    48  48 100 N15       29.82R
$$
  *****  WEATHER ACROSS CENTRAL AND WEST MINNESOTA  *****

CITY           SKY/WX    TMP DP  RH WIND       PRES   REMARKS
BEMIDJI        CLOUDY    47  46  95 NW13      29.74R
PARK RAPIDS    CLOUDY    50  45  83 NW13      29.74R
WADENA         CLOUDY    48  46  93 NW12G18   29.77R
DETROIT LAKES  LGT RAIN  48  46  93 NW15      29.81R
MOORHEAD       DRIZZLE   50  46  87 NW18      29.84R
FERGUS FALLS   CLOUDY    48  48 100 NW14      29.81S FOG
ELBOW LAKE     CLOUDY    50  49  97 W17G24    29.83R
MORRIS MN      CLOUDY    52  46  82 NW18      29.82S
STAPLES        CLOUDY    48  46  93 W13G18    29.76R
WHEATON        CLOUDY    54  48  82 NW9       29.86R
$$
  *****  WEATHER ELSEWHERE ACROSS MINNESOTA  *****

CITY           SKY/WX    TMP DP  RH WIND       PRES   REMARKS
DULUTH         CLOUDY    52  49  89 NW15G22   29.64R
INTRNTL FALLS  RAIN      50  48  93 NW12      29.65S FOG
ELY            RAIN      50  50 100 W7        29.60S
CLOQUET        CLOUDY    52  46  82 W13       29.66S
BRAINERD       LGT RAIN  50  48  93 W8        29.74S FOG
HIBBING        LGT RAIN  48  48 100 NW9       29.66R
ALEXANDRIA     CLOUDY    50  48  93 W15       29.80R
SAINT CLOUD    CLOUDY    52  48  86 W12       29.76R
MINNEAPOLIS    CLOUDY    55  47  74 W12       29.76R
$$

  *****  WEATHER ACROSS SOUTH DAKOTA  *****

CITY           SKY/WX    TMP DP  RH WIND       PRES   REMARKS
SIOUX FALLS    FAIR      50  45  83 NW12      29.92R
BROOKINGS      FAIR      47  43  86 NW9       29.91R
WATERTOWN      FAIR      48  44  86 NW9       29.89R
HURON          FAIR      47  42  83 NW14      29.95R
SISSETON         N/A     53  48  83 NW15      29.84R
ABERDEEN       FAIR      48  40  73 W15G22    29.92R
MITCHELL       FAIR      49  43  80 W9        29.97R
PIERRE         FAIR      48  40  73 NW12      30.02R
MOBRIDGE       FAIR      46  39  76 NW9       30.00R
RAPID CITY     FAIR      40  34  79 NW6       30.14R
$$

  *****  SOME WEATHER IN NEARBY STATES *****

CITY           SKY/WX    TMP DP  RH WIND       PRES   REMARKS
GLASGOW MT     FAIR      38  31  76 NW9       30.20R
GREAT FALLS MT FAIR      45  42  89 SW8       30.25S
CHEYENNE WY    MOCLDY    44  36  73 W13       30.26F
SCOTTSBLUFF NE FAIR      46  41  82 NW6       30.18S
OMAHA NE       FAIR      57  44  62 N3        29.95R
DES MOINES IA  FAIR      57  48  72 CALM      29.90S
DAVENPORT IA   MOCLDY    58  48  69 W9        29.85S
CHICAGO IL     FAIR      59  50  72 W8        29.78R
EAU CLAIRE WI  CLOUDY    53  50  89 W9        29.70R
LA CROSSE WI   FAIR      56  46  69 W9        29.76R
$$

  *****  SOME NATIONAL WEATHER *****

CITY           SKY/WX    TMP DP  RH WIND       PRES   REMARKS
LA GUARDIA NY  LGT RAIN  57  54  89 E10       29.89S
RALEIGH NC     PTSUNNY   66  63  90 SW3       29.90R
ATLANTA GA     MOCLDY    69  65  86 W6        29.99S
NEW ORLEANS LA TSTM      69  67  93 SW9G20    30.08R FOG
OKLAHOMA CITY  MOCLDY    55  48  77 S5        30.02F
ALBUQUERQUE NM FAIR      59  35  40 N7        30.19R
SALT LAKE CITY FAIR      56  41  57 SE6       30.13S
LOS ANGELES CA CLOUDY    60  57  89 S6        29.93S
BOISE ID       FAIR      58  42  55 CALM      30.09R
SEATTLE WA     CLOUDY    53  50  89 SW8       30.08S
$$

*** WEATHER ACROSS MANITOBA...SASKATCHEWAN AND ONTARIO ***
                ***ONTARIO***

CITY           SKY/WX    TMP DP  RH WIND       PRES   REMARKS
GERALDTON      CLOUDY    54  52  94 CALM      29.52S
THUNDER BAY    LGT RAIN  50  50 100 W5        29.55S FOG
SIOUX LOOKOUT  PTCLDY    48  48 100 NW3       29.57S
TORONTO        CLOUDY    63  59  88 SW7       29.72R
BIG TROUT LK   MOCLDY    54  52  94 N5        29.58S
PICKLE LAKE    LGT RAIN  52  50  93 N3        29.56
DRYDEN         LGT RAIN  52  50  93 NW6       29.61R
KENORA         DRIZZLE   46  46 100 NW10G21   29.68S
$$
                *** MANITOBA***

CITY           SKY/WX    TMP DP  RH WIND       PRES   REMARKS
BRANDON        MOCLDY    48  45  87 NW13      29.91
DAUPHIN        LGT RAIN  48  45  87 NW13      29.92R
ISLAND LAKE    NOT AVBL
PILOT MOUND      N/A     46  45  93 NW13        N/A
THE PAS        CLOUDY    45  37  76 N13       29.96R
THOMPSON       LGT RAIN  37  36  93 N8        29.89R
WINNIPEG       LGT RAIN  46  43  87 NW17      29.82S
LYNN LAKE      LGT RAIN  37  37 100 N8        30.05R
CHURCHILL      CLOUDY    34  34 100 N12       29.91R
GILLAM         FOG       34  34 100 N9G17     29.82R VSB 1/4
$$
                ***SASKATCHEWAN***

CITY           SKY/WX    TMP DP  RH WIND       PRES   REMARKS
ESTEVAN        PTCLDY    43  41  93 NW10      30.06S
KINDERSLEY     CLEAR     37  34  87 VRB2      30.24R
LLOYDMINSTER   CLEAR     39  37  93 W6        30.24S
PRINCE ALBERT  PTCLDY    39  37  93 NW7       30.15S
REGINA         MOCLDY    48  41  76 NW13      30.12R
YORKTON          N/A     46  43  87 NW14      30.01S



USA.gov is the U.S. government's official web portal to all federal, state and local government web resources and services.